World > North America > United States > Florida > Oldsmar   City of Oldsmar, FL

Oldsmar, FL Hourly Weather Updates

Feedback E-mail the Weather

Quick Clicks

Oldsmar, FL Weather Maps

°F °C°F °C
Oldsmar Weather Map
UTC Time: 6/19/2024, 20:21
Your Time:

Oldsmar, FL Regional Weather

Expires:202406192100;;311208
ASUS42 KTBW 192011
RWRFL 
FLORIDA REGIONAL WEATHER ROUNDUP
NATIONAL WEATHER SERVICE TAMPA BAY RUSKIN FL
400 PM EDT WED JUN 19 2024

NOTE: "FAIR" INDICATES FEW OR NO CLOUDS BELOW 12,000 FEET WITH NO
SIGNIFICANT WEATHER AND/OR OBSTRUCTIONS TO VISIBILITY.


FLZ050-056-061-142-242-148-248-149-249-151-251-155-255-
160-260-192100-
WEST CENTRAL FLORIDA
  
CITY           SKY/WX    TMP DP  RH WIND       PRES   REMARKS
CRYSTAL RIVER  CLOUDY    81  73  78 E7        30.06F                  
INVERNESS      CLOUDY    86  73  66 E10       30.06F HAZE             
BROOKSVILLE    LGT RAIN  76  32  20 E9G24     30.07S                  
CLEARWATER AIR MOSUNNY   84  70  61 E7G16     30.02F                  
ST PETE CLEARW MOSUNNY   86  75  69 E12G24    30.01F HX  95           
TAMPA INTL     MOSUNNY   86  72  62 E15G24    30.03F                  
TAMPA EXEC     PTSUNNY   84  75  74 NE12G21   30.04F                  
PLANT CITY     CLOUDY    88  77  70 NE10      30.05F HX 100           
MACDILL AFB    SUNNY     88  73  62 E18       29.99F HX  95           
PETER O KNIGHT RAIN      88  70  55 E14G22    30.03F                  
ST PETERSBURG  SUNNY     86  76  71 E28G35    30.00F HX  96           
SARASOTA       MOSUNNY   89  72  56 E15G28    29.99F HX  96           
VENICE         PTSUNNY   86  81  84 E13G21    29.99F HX 102           

STATION/POSITION SKY/WX   TEMP    WIND        PRES    WAVE   SWELL
                          AIR SEA DIR/SP/G            HT/PER HT/PER
                          (F)     (DEG/KT/KT) (MB)    (FT/S) (FT/S)
27.3N   84.3W              84 83                N/A     6/ 6   2/11
CLEARWATER BEACH           86 87   90/ 12/ 18 1016.7F
MIDDLE TAMPA BAY           83      70/ 16/ 19 1016.2F
VENICE                     84 84   70/  7/ 10 1015.3F

$$

SKY/WX - Weather  TMP - Temperature  DP - Dew Point  RH - Humidity
WIND - Wind Direction/Speed PRES - Barometric Pressure VSB - Visibility
WCI - Wind Chill Index E13G22 Wind - East Wind 13 mph/Gusts of 22 mph

Trending Headlines

Trending Entertainment Headlines

Oldsmar Radar Loop

Use the map search tool if you want to place a location marker on the radar map...

Oldsmar Quick Facts

National Two Day Weather Forecast


E-mail the Oldsmar Weather Forecast

Voice your opinion or tell us about page issues...